MST,Max TemperatureF,Mean TemperatureF,Min TemperatureF,Max Dew PointF,MeanDew PointF,Min DewpointF,Max Humidity, Mean Humidity, Min Humidity, Max Sea Level PressureIn, Mean Sea Level PressureIn, Min Sea Level PressureIn, Max VisibilityMiles, Mean VisibilityMiles, Min VisibilityMiles, Max Wind SpeedMPH, Mean Wind SpeedMPH, Max Gust SpeedMPH,PrecipitationIn, CloudCover, Events, WindDirDegrees
2014-1-1,42,31,19,28,22,18,100,71,41,30.46,30.32,30.16,10,10,4,17,8,22,T,4,Snow,219
2014-1-2,49,39,29,29,22,18,75,55,34,30.21,29.97,29.63,10,10,10,38,25,46,0.00,1,,219
2014-1-3,48,35,22,32,24,18,100,70,40,30.12,29.82,29.42,10,5,1,43,18,54,0.07,7,Snow,302
2014-1-4,22,12,1,21,7,-2,100,87,73,30.68,30.25,29.97,10,3,1,22,7,29,0.19,8,Snow,3
2014-1-5,10,-5,-21,0,-10,-25,95,76,56,31.01,30.72,30.41,10,7,1,21,10,25,T,4,Snow,249
2014-1-6,36,23,10,23,14,2,69,59,49,30.54,30.27,30.06,10,10,10,29,20,36,0.00,3,,216
2014-1-7,40,32,23,26,22,19,81,65,48,30.09,30.05,29.99,10,10,10,13,5,17,0.00,5,,245
2014-1-8,40,35,29,28,27,25,75,70,64,29.96,29.83,29.64,10,10,10,26,17,31,0.00,2,,218
2014-1-9,44,38,31,27,23,16,70,60,49,29.72,29.65,29.59,10,10,10,29,19,35,0.00,1,,223
2014-1-10,42,36,30,24,22,16,64,55,46,29.85,29.69,29.59,10,10,10,30,18,37,0.00,2,,234
2014-1-11,54,44,33,36,27,20,79,62,44,29.80,29.45,29.23,10,10,4,47,25,60,T,1,Rain,221
2014-1-12,43,37,30,24,20,15,69,53,37,29.86,29.63,29.33,10,10,10,35,22,44,0.00,1,,241
2014-1-13,49,39,28,30,27,21,100,67,34,30.39,30.02,29.66,10,5,0,46,21,62,0.15,5,Fog-Snow,286
2014-1-14,41,27,13,31,26,14,100,80,59,30.52,30.39,30.20,10,7,1,24,13,32,0.03,3,Snow,219
2014-1-15,51,41,30,26,23,19,59,47,34,30.43,30.17,30.07,10,10,10,43,23,49,0.00,0,,249
2014-1-16,45,33,21,24,20,15,78,58,37,30.51,30.42,30.24,10,10,10,15,7,17,0.00,0,,206
2014-1-17,58,41,24,24,20,17,75,50,24,30.31,30.18,30.09,10,10,10,23,12,32,0.00,0,,240
2014-1-18,53,38,23,23,21,17,88,57,26,30.32,30.14,29.88,10,10,10,29,17,36,0.00,0,,215
2014-1-19,51,36,21,21,14,9,81,50,19,30.37,29.99,29.84,10,10,10,33,18,41,0.00,1,,245
2014-1-20,48,33,18,20,16,12,84,56,28,30.51,30.39,30.22,10,10,10,24,13,29,0.00,0,,214
2014-1-21,46,37,27,25,17,11,78,52,25,30.38,30.30,30.20,10,10,10,22,7,26,0.00,2,,340
2014-1-22,32,20,8,28,21,8,100,86,72,30.62,30.32,30.17,10,3,0,16,6,18,0.24,6,Fog-Snow,53
2014-1-23,38,23,8,27,20,10,100,80,59,30.58,30.46,30.37,10,8,0,25,15,33,0.00,2,Fog,210
2014-1-24,50,43,35,30,27,25,70,58,46,30.38,30.32,30.27,10,10,10,25,16,30,0.00,0,,216
2014-1-25,58,46,33,28,27,23,75,52,29,30.27,30.13,29.98,10,10,10,30,16,36,0.00,0,,237
2014-1-26,38,25,11,31,18,5,82,67,51,30.53,30.31,30.00,10,9,3,35,9,43,0.01,7,Snow,349
2014-1-27,24,14,4,9,3,0,88,64,39,30.55,30.50,30.46,10,10,10,16,7,20,0.00,0,,262
2014-1-28,43,23,3,22,6,-2,80,49,18,30.47,30.15,29.88,10,10,10,30,16,36,0.00,1,,214
2014-1-29,40,28,16,34,27,14,100,80,59,29.87,29.59,29.45,10,4,0,26,10,35,0.42,7,Fog-Rain-Snow,30
2014-1-30,16,6,-4,14,4,-6,95,89,83,30.22,29.97,29.74,10,4,1,18,6,21,0.12,8,Snow,325
2014-1-31,22,8,-7,14,7,-6,96,74,51,30.22,30.02,29.89,10,5,1,16,5,17,0.06,7,Snow,295